Regional Weather Roundup
Issued by NWS

Home | Current Version | Previous Version | Graphics & Text | Print | Product List | Glossary On
Versions: 1 2 3 4 5 6 7 8 9 10 11 12 13 14 15 16 17 18 19 20 21 22 23 24 25 26 27 28 29 30 31 32 33 34 35 36 37 38 39 40 41 42 43 44 45 46 47 48 49 50
000
ASUS43 KMPX 191801
RWRMN
WEATHER ROUNDUP FOR MINNESOTA
NATIONAL WEATHER SERVICE TWIN CITIES/CHANHASSEN MN
100 PM CDT THU OCT 19 2017


NOTE: "FAIR" INDICATES FEW OR NO CLOUDS BELOW 12,000 FEET WITH NO
SIGNIFICANT WEATHER AND/OR OBSTRUCTIONS TO VISIBILITY. N/A MEANS
CURRENT SKY AND/OR WEATHER CONDITIONS ARE NOT AVAILABLE.

MNZ060>063-068>070-191900-
   Twin Cities Metro

CITY           SKY/WX    TMP DP  RH WIND       PRES   REMARKS
TWIN CITIES    FAIR      67  34  29 S13       30.04F
6HR MIN TEMP:  43; 6HR MAX TEMP:  67;

ST PAUL        FAIR      66  40  38 SE9       30.05F
CRYSTAL        FAIR      66  33  29 S9        30.02F
BLAINE         PTSUNNY   68  32  26 S14G21    30.02F
EDEN PRAIRIE   FAIR      69  33  26 S15G22    30.02F
6HR MIN TEMP:  41; 6HR MAX TEMP:  69;

$$
MNZ001>005-007-008-013>017-022>024-027-028-191900-
   Northwest Minnesota

CITY           SKY/WX    TMP DP  RH WIND       PRES   REMARKS
HALLOCK        FAIR      59  28  31 S21       29.78F
WARROAD        FAIR      61  32  33 S7        29.84F
PARK RAPIDS    FAIR      67  37  33 S18G24    29.91F
MAHNOMEN       FAIR      67  36  31 SW22G29   29.85F
$$
MNZ006-009>011-018-025>026-191900-
   North Central Minnesota

CITY           SKY/WX    TMP DP  RH WIND       PRES   REMARKS
BAUDETTE       FAIR      62  29  28 S10       29.86F
INTL FALLS     FAIR      61  23  23 SW10      29.90F
6HR MIN TEMP:  36; 6HR MAX TEMP:  61;

LONGVILLE      FAIR      64  30  27 S8G22     29.94F
GRAND RAPIDS   FAIR      63  30  28 S9        29.96F
CRANE LAKE     FAIR      57  19  23 S9        29.96S
COOK           FAIR      61  27  27 SW7       29.96F
WALKER         FAIR      65  33  30 S15       29.90F
$$
MNZ012-019>021-037-191900-
   Northeast Minnesota

CITY           SKY/WX    TMP DP  RH WIND       PRES   REMARKS
DULUTH         FAIR      62  31  31 SW14      29.99F
6HR MIN TEMP:  39; 6HR MAX TEMP:  62;

HIBBING        FAIR      61  28  28 SW8       29.96F
SILVER BAY     FAIR      64  27  24 SW7       29.97S
GRAND MARAIS     N/A     49  39  68 W13       29.96S
$$
MNZ029>031-032-039>041-046>048-054>057-064-191900-
   West Central Minnesota

CITY           SKY/WX    TMP DP  RH WIND       PRES   REMARKS
WHEATON        FAIR      70  36  28 S18G28    29.90F
MORRIS         FAIR      68  39  34 S16G22    29.92F
ALEXANDRIA     FAIR      67  37  33 S20       29.95F
ELBOW LAKE     FAIR      64  39  39 S15G21    29.92F
WILLMAR        FAIR      70  36  28 S9G24     30.00F
$$
MNZ033>034-036-042>043-049>051-058-059-191900-
   Central Minnesota

CITY           SKY/WX    TMP DP  RH WIND       PRES   REMARKS
ST CLOUD       FAIR      66  33  29 S16       30.00F
6HR MIN TEMP:  34; 6HR MAX TEMP:  66;

AITKIN         FAIR      63  30  29 S14       29.97F
BRAINERD       FAIR      65  32  29 S14       29.97F
$$
MNZ037-044-045-052-053-191900-
   East Central Minnesota

CITY           SKY/WX    TMP DP  RH WIND       PRES   REMARKS
PRINCETON      FAIR      66  34  30 S7        30.02F
MORA           FAIR      63  32  31 SW9G16    30.04F
CAMBRIDGE      FAIR      66  43  42 S15       30.02F
MOOSE LAKE     FAIR      63  34  34 SW9       29.99F
CLOQUET        FAIR      63  25  23 SW9       30.00F
MCGREGOR       FAIR      63  30  29 S10       29.99F
$$
MNZ071>073-080-081-089-090-097-098-191900-
   Southwest Minnesota

CITY           SKY/WX    TMP DP  RH WIND       PRES   REMARKS
MARSHALL       FAIR      71  40  32 S25       29.96F
REDWOOD FALLS  FAIR      69  33  26 S21       30.00F
WORTHINGTON    FAIR      69  41  36 S16G23    30.04F
SLAYTON        FAIR      69  19  15 S17G24    30.03F
$$
MNZ065>067-074>077-082>085-091>093-191900-
   South Central Minnesota

CITY           SKY/WX    TMP DP  RH WIND       PRES   REMARKS
MANKATO        FAIR      69  32  25 S13G20    30.05F
ST JAMES       FAIR      66  30  26 SE17      30.06F
FAIRMONT       FAIR      66  34  30 S21G29    30.06F
$$
MNZ078>079-086>088-094>096-191900-
   Southeast Minnesota

CITY           SKY/WX    TMP DP  RH WIND       PRES   REMARKS
ROCHESTER      FAIR      67  34  29 S15       30.10F
6HR MIN TEMP:  37; 6HR MAX TEMP:  68;

RED WING       FAIR      64  34  32 SE6       30.06F
AUSTIN         FAIR      64  32  29 S9        30.10F
PRESTON        FAIR      65  32  29 S12       30.13F
$$
ABBREVIATIONS USED IN REMARKS
   TC - TEMPERATURES IN CELSIUS
  WCI - WIND CHILL INDEX
   HX - HEAT INDEX
  VSB - VISIBILITY
$$




USA.gov is the U.S. government's official web portal to all federal, state and local government web resources and services.